Location: Haulchin
(50.3172°N, 3.4360°E)
Time: 06:14:32
(UTC+00:00)

IDEFIX/ARIANE 42P - Pass Details

Date: 23 May 2024
Orbit: 783 x 799 km, 98.5° (Epoch: 19 June)

Event Time Altitude Azimuth Distance (km) Brightness Sun altitude
Rises 01:17:17 0° 17° (NNE) 3,318 7.6 -16.0°
Reaches altitude 10° 01:19:41 10° 22° (NNE) 2,384 6.4 -15.9°
Maximum altitude 01:24:52 56° 101° (E) 952 3.0 -15.6°
Enters shadow 01:28:35 19° 174° (S) 1,839 4.0 -15.3°
